COSMOS 1680

Satellite information

Favourite Embed

Satellite Type and Status

PAYLOADIN ORBIT

Key statistics

Satellite COSMOS 1680 at a glance.

Uptime

14710

Days in orbit

Revolutions

≈ 14.3

Per day

Orbit

LEO

Low Earth Orbit

Inclination

74.1

Latest

Satellite identification and parameters

Extended collection of information and parameters for COSMOS 1680.

Object identification

Identified? True

Debris? False

Object name: COSMOS 1680

International designator: 1985-079A

Object number (NORAD): 16011

Object ID (CCSDS): 16011

Country: COMMONWEALTH OF INDEPENDENT STATES (CIS)

Current information (Y/N): Y

RCS size: LARGE

Orbital parameters

Period: 100.412 minutes

Inclination: 74.0536 deg

SMA: 7156.214 km

Apoapsis: 788.647 km

Periapsis: 767.511 km

RAAN: 306.587 deg

Eccentricy: 0.00147674

Argument of periapsis: 171.7386 deg

Mean anomaly: 188.4012 deg

Mean motion: 14.34094487 rev/day

Mean motion (dot): 0.00000274 rev/day2

B* drag term: 0.00010703221 1/REarth

Two-line elements (TLE)

Creation date: Dec. 12, 2025, 10:14 a.m.

Reference frame: TEME

Reference center: EARTH

Epoch: Dec. 12, 2025, 5:54 a.m. UTC

TLE line 0: 0 COSMOS 1680

TLE line 1: 1 16011U 85079A 25346.24651814 .00000274 00000-0 10703-3 0 9996

TLE line 2: 2 16011 74.0536 306.5870 0014767 171.7386 188.4012 14.34094487105007

Live tracking on map

Real-time ground track for satellite COSMOS 1680.

In-orbit conjunctions

A list of the most updated potential collisions computed for object COSMOS 1680.

Target Orbit TCA Probability of collision Miss distance Type
FENGYUN 1C DEB SSO 2025-12-03 03:49:49 0.0001809349 822.0 (m) DEBRIS
FENGYUN 1C DEB SSO 2025-11-04 05:59:13 0.000113289 124.0 (m) DEBRIS
FENGYUN 1C DEB SSO 2025-10-02 19:24:00 0.002544956 52.0 (m) DEBRIS
CZ-6A DEB SSO 2025-08-24 12:01:26 0.000437622 651.0 (m) DEBRIS
FENGYUN 1C DEB SSO 2025-07-16 18:06:04 0.0001064256 771.0 (m) DEBRIS

Associated space launch

Military communications satellite

COSMOS 1680 was lifted into orbit during the mission ‘Kosmos-3M | Strela-2M 37’, on board a Kosmos-3M space rocket.

The launch took place on Sept. 4, 1985, 7:05 a.m. from 132/1 (132L).

For more information about the launch, click the button.

Launch to space Kosmos-3M | Strela-2M 37
Kosmos-3M | Strela-2M 37

Agency: N/A

Status: Launch Successful

Launch date: Sept. 4, 1985, 7:05 a.m. UTC

Rocket: Kosmos-3M

Launch pad: 132/1 (132L)

Location: Plesetsk Cosmodrome, Russian Federation

...

Latest news about this satellite

There are no fresh news available about this satellite. Check back as we update our databases every day.


Newsletter sign-up

Weekly statistics, charts and insights to help you stay on top of the space industry.